Hourly Data Report for October 22, 2015

All times are specified in Local Standard Time (LST). Add 1 hour to adjust for Daylight Saving Time where and when it is observed.

CORAL HARBOUR A
NUNAVUT

64°11'36.000" N
83°21'34.000" W
62.20 m
2301002
71915
YZS

Download Data

Hourly Data (October 2015)
Hourly Data Report for October 22, 2015
Temp Definition
°C
Dew Point Temp Definition
°C
Rel Hum Definition
%
Wind Dir Definition
10's deg

Wind Spd Definition
km/h
Visibility Definition
km
Stn Press Definition
kPa
Hmdx Definition


Wind Chill Definition


Weather Definition


TIME
00:00 Legend Double Dagger -8.6 -12.6 73 33 11 24.1 101.40   -14 Snow
01:00 Legend Double Dagger -8.9 -12.6 75 32 14 24.1 101.42   -15 Snow
02:00 Legend Double Dagger -11.1 -13.8 81 33 12 24.1 101.45   -17 Snow
03:00 Legend Double Dagger -13.0 -15.6 81 36 16 24.1 101.47   -21 Snow
04:00 Legend Double Dagger -12.7 -15.3 81 36 14 24.1 101.49   -20 Snow
05:00 Legend Double Dagger -12.2 -14.8 81 33 10 24.1 101.51   -18 Snow
06:00 Legend Double Dagger -11.9 -14.7 80 35 16 24.1 101.52   -19 Snow
07:00 Legend Double Dagger -11.6 -14.1 82 34 18 24.1 101.52   -19 Mostly Cloudy
08:00 Legend Double Dagger -13.2 -15.5 83 34 18 24.1 101.49   -21 LegendNANA
09:00 Legend Double Dagger -13.5 -15.7 84 29 12 24.1 101.54   -20 LegendNANA
10:00 Legend Double Dagger -12.2 -14.8 81 32 11 24.1 101.55   -18 Snow
11:00 Legend Double Dagger -12.0 -14.6 81 33 15 24.1 101.55   -19 Snow
12:00 Legend Double Dagger -12.0 -14.3 83 32 11 24.1 101.52   -18 Snow
13:00 Legend Double Dagger -11.8 -14.4 81 34 9 24.1 101.52   -17 Snow
14:00 Legend Double Dagger -12.2 -15.0 80 36 6 24.1 101.50   -16 Snow
15:00 Legend Double Dagger -12.3 -14.6 83 2 10 24.1 101.44   -18 LegendNANA
16:00 Legend Double Dagger -11.9 -14.2 83 2 12 24.1 101.43   -18 Mostly Cloudy
17:00 Legend Double Dagger -11.7 -13.7 85 2 10 24.1 101.40   -17 LegendNANA
18:00 Legend Double Dagger -11.4 -13.2 87 34 5 24.1 101.37   -15 LegendNANA
19:00 Legend Double Dagger -11.3 -13.1 87 5 4 24.1 101.33   -14 Cloudy
20:00 Legend Double Dagger -10.9 -12.7 87 7 10 24.1 101.24   -16 LegendNANA
21:00 Legend Double Dagger -10.2 -12.0 87 9 10 24.1 101.15   -15 LegendNANA
22:00 Legend Double Dagger -9.7 -11.3 88 8 16 12.9 101.04   -17 Snow
23:00 Legend Double Dagger -8.6 -10.0 90 8 17 12.9 100.92   -15 Snow

Notes on Data Quality.

Legend

  • E = Estimated
  • M = Missing
  • NA = Not Available
  • ‡ = Partner data that is not subject to review by the National Climate Archives
Date modified: